CCSDS_OMM_VERS = 2.0 CREATION_DATE = ORIGINATOR = OBJECT_NAME = PROBA-1 OBJECT_ID = 2001-049B CENTER_NAME = EARTH REF_FRAME = TEME TIME_SYSTEM = UTC MEAN_ELEMENT_THEORY = SGP/SGP4 EPOCH = 2026-09-12T08:17:45.621888 MEAN_MOTION = 15.07796467 ECCENTRICITY = .00541211 INCLINATION = 97.962 RA_OF_ASC_NODE = 266.9537 ARG_OF_PERICENTER = 186.2796 MEAN_ANOMALY = 173.7759 EPHEMERIS_TYPE = 0 CLASSIFICATION_TYPE = U NORAD_CAT_ID = 26958 ELEMENT_SET_NO = 999 REV_AT_EPOCH = 35675 BSTAR = .63051E-4 MEAN_MOTION_DOT = .92400E-5 MEAN_MOTION_DDOT = 0 CCSDS_OMM_VERS = 2.0 CREATION_DATE = ORIGINATOR = OBJECT_NAME = CUTE-1 (CO-55) OBJECT_ID = 2003-031E CENTER_NAME = EARTH REF_FRAME = TEME TIME_SYSTEM = UTC MEAN_ELEMENT_THEORY = SGP/SGP4 EPOCH = 2026-09-12T00:03:53.668800 MEAN_MOTION = 14.24379869 ECCENTRICITY = .00084928 INCLINATION = 98.677 RA_OF_ASC_NODE = 262.484 ARG_OF_PERICENTER = 297.1642 MEAN_ANOMALY = 62.8671 EPHEMERIS_TYPE = 0 CLASSIFICATION_TYPE = U NORAD_CAT_ID = 27844 ELEMENT_SET_NO = 999 REV_AT_EPOCH = 20403 BSTAR = .96670E-4 MEAN_MOTION_DOT = .18000E-5 MEAN_MOTION_DDOT = 0 CCSDS_OMM_VERS = 2.0 CREATION_DATE = ORIGINATOR = OBJECT_NAME = CUBESAT XI-IV (CO-57) OBJECT_ID = 2003-031J CENTER_NAME = EARTH REF_FRAME = TEME TIME_SYSTEM = UTC MEAN_ELEMENT_THEORY = SGP/SGP4 EPOCH = 2026-09-11T13:01:51.342240 MEAN_MOTION = 14.23658642 ECCENTRICITY = .00086616 INCLINATION = 98.6802 RA_OF_ASC_NODE = 261.6728 ARG_OF_PERICENTER = 319.6234 MEAN_ANOMALY = 40.4301 EPHEMERIS_TYPE = 0 CLASSIFICATION_TYPE = U NORAD_CAT_ID = 27848 ELEMENT_SET_NO = 999 REV_AT_EPOCH = 20366 BSTAR = .84349E-4 MEAN_MOTION_DOT = .14900E-5 MEAN_MOTION_DDOT = 0 CCSDS_OMM_VERS = 2.0 CREATION_DATE = ORIGINATOR = OBJECT_NAME = APRIZESAT 4 OBJECT_ID = 2009-041D CENTER_NAME = EARTH REF_FRAME = TEME TIME_SYSTEM = UTC MEAN_ELEMENT_THEORY = SGP/SGP4 EPOCH = 2026-09-12T04:10:02.574624 MEAN_MOTION = 14.83986662 ECCENTRICITY = .00440403 INCLINATION = 98.135 RA_OF_ASC_NODE = 332.2012 ARG_OF_PERICENTER = 40.8709 MEAN_ANOMALY = 319.5793 EPHEMERIS_TYPE = 0 CLASSIFICATION_TYPE = U NORAD_CAT_ID = 35684 ELEMENT_SET_NO = 999 REV_AT_EPOCH = 92426 BSTAR = .59606E-4 MEAN_MOTION_DOT = .44500E-5 MEAN_MOTION_DDOT = 0 CCSDS_OMM_VERS = 2.0 CREATION_DATE = ORIGINATOR = OBJECT_NAME = APRIZESAT 3 OBJECT_ID = 2009-041F CENTER_NAME = EARTH REF_FRAME = TEME TIME_SYSTEM = UTC MEAN_ELEMENT_THEORY = SGP/SGP4 EPOCH = 2026-09-12T00:44:15.960192 MEAN_MOTION = 14.9644458 ECCENTRICITY = .00620614 INCLINATION = 98.2178 RA_OF_ASC_NODE = 52.4925 ARG_OF_PERICENTER = 139.6292 MEAN_ANOMALY = 220.9559 EPHEMERIS_TYPE = 0 CLASSIFICATION_TYPE = U NORAD_CAT_ID = 35686 ELEMENT_SET_NO = 999 REV_AT_EPOCH = 92936 BSTAR = .84057E-4 MEAN_MOTION_DOT = .92200E-5 MEAN_MOTION_DDOT = 0 CCSDS_OMM_VERS = 2.0 CREATION_DATE = ORIGINATOR = OBJECT_NAME = PROBA-2 OBJECT_ID = 2009-059B CENTER_NAME = EARTH REF_FRAME = TEME TIME_SYSTEM = UTC MEAN_ELEMENT_THEORY = SGP/SGP4 EPOCH = 2026-09-12T05:46:31.104192 MEAN_MOTION = 14.54892968 ECCENTRICITY = .00136101 INCLINATION = 98.2481 RA_OF_ASC_NODE = 77.4098 ARG_OF_PERICENTER = 17.3162 MEAN_ANOMALY = 342.8497 EPHEMERIS_TYPE = 0 CLASSIFICATION_TYPE = U NORAD_CAT_ID = 36037 ELEMENT_SET_NO = 999 REV_AT_EPOCH = 89418 BSTAR = .32684E-4 MEAN_MOTION_DOT = .95000E-6 MEAN_MOTION_DDOT = 0 CCSDS_OMM_VERS = 2.0 CREATION_DATE = ORIGINATOR = OBJECT_NAME = APRIZESAT 5 OBJECT_ID = 2011-044E CENTER_NAME = EARTH REF_FRAME = TEME TIME_SYSTEM = UTC MEAN_ELEMENT_THEORY = SGP/SGP4 EPOCH = 2026-09-12T06:57:22.196736 MEAN_MOTION = 14.81203847 ECCENTRICITY = .00534367 INCLINATION = 98.2473 RA_OF_ASC_NODE = 190.8126 ARG_OF_PERICENTER = 82.3476 MEAN_ANOMALY = 278.38 EPHEMERIS_TYPE = 0 CLASSIFICATION_TYPE = U NORAD_CAT_ID = 37792 ELEMENT_SET_NO = 999 REV_AT_EPOCH = 81168 BSTAR = .91604E-4 MEAN_MOTION_DOT = .67100E-5 MEAN_MOTION_DDOT = 0 CCSDS_OMM_VERS = 2.0 CREATION_DATE = ORIGINATOR = OBJECT_NAME = APRIZESAT 6 OBJECT_ID = 2011-044F CENTER_NAME = EARTH REF_FRAME = TEME TIME_SYSTEM = UTC MEAN_ELEMENT_THEORY = SGP/SGP4 EPOCH = 2026-09-11T17:18:45.082368 MEAN_MOTION = 14.77018811 ECCENTRICITY = .00432204 INCLINATION = 98.2285 RA_OF_ASC_NODE = 166.9595 ARG_OF_PERICENTER = 167.2665 MEAN_ANOMALY = 222.6812 EPHEMERIS_TYPE = 0 CLASSIFICATION_TYPE = U NORAD_CAT_ID = 37793 ELEMENT_SET_NO = 999 REV_AT_EPOCH = 80992 BSTAR = .65449E-4 MEAN_MOTION_DOT = .41200E-5 MEAN_MOTION_DDOT = 0 CCSDS_OMM_VERS = 2.0 CREATION_DATE = ORIGINATOR = OBJECT_NAME = PROBA-V OBJECT_ID = 2013-021A CENTER_NAME = EARTH REF_FRAME = TEME TIME_SYSTEM = UTC MEAN_ELEMENT_THEORY = SGP/SGP4 EPOCH = 2026-09-11T22:05:11.120640 MEAN_MOTION = 14.23612519 ECCENTRICITY = .0003116 INCLINATION = 98.3697 RA_OF_ASC_NODE = 229.2878 ARG_OF_PERICENTER = 229.2858 MEAN_ANOMALY = 130.8051 EPHEMERIS_TYPE = 0 CLASSIFICATION_TYPE = U NORAD_CAT_ID = 39159 ELEMENT_SET_NO = 999 REV_AT_EPOCH = 69345 BSTAR = .31763E-4 MEAN_MOTION_DOT = .31000E-6 MEAN_MOTION_DDOT = 0 CCSDS_OMM_VERS = 2.0 CREATION_DATE = ORIGINATOR = OBJECT_NAME = APRIZESAT 7 OBJECT_ID = 2013-066A CENTER_NAME = EARTH REF_FRAME = TEME TIME_SYSTEM = UTC MEAN_ELEMENT_THEORY = SGP/SGP4 EPOCH = 2026-09-12T07:00:55.485504 MEAN_MOTION = 14.91742937 ECCENTRICITY = .00341949 INCLINATION = 97.7793 RA_OF_ASC_NODE = 207.305 ARG_OF_PERICENTER = 283.3216 MEAN_ANOMALY = 76.419 EPHEMERIS_TYPE = 0 CLASSIFICATION_TYPE = U NORAD_CAT_ID = 39416 ELEMENT_SET_NO = 999 REV_AT_EPOCH = 69421 BSTAR = .10095E-3 MEAN_MOTION_DOT = .96900E-5 MEAN_MOTION_DDOT = 0 CCSDS_OMM_VERS = 2.0 CREATION_DATE = ORIGINATOR = OBJECT_NAME = APRIZESAT 8 OBJECT_ID = 2013-066K CENTER_NAME = EARTH REF_FRAME = TEME TIME_SYSTEM = UTC MEAN_ELEMENT_THEORY = SGP/SGP4 EPOCH = 2026-09-12T07:23:55.541472 MEAN_MOTION = 14.87789358 ECCENTRICITY = .00458436 INCLINATION = 97.829 RA_OF_ASC_NODE = 201.5943 ARG_OF_PERICENTER = 1.2242 MEAN_ANOMALY = 358.9078 EPHEMERIS_TYPE = 0 CLASSIFICATION_TYPE = U NORAD_CAT_ID = 39425 ELEMENT_SET_NO = 999 REV_AT_EPOCH = 69262 BSTAR = .92470E-4 MEAN_MOTION_DOT = .80300E-5 MEAN_MOTION_DDOT = 0 CCSDS_OMM_VERS = 2.0 CREATION_DATE = ORIGINATOR = OBJECT_NAME = BUGSAT-1 (TITA) OBJECT_ID = 2014-033E CENTER_NAME = EARTH REF_FRAME = TEME TIME_SYSTEM = UTC MEAN_ELEMENT_THEORY = SGP/SGP4 EPOCH = 2026-09-12T07:03:28.899072 MEAN_MOTION = 15.16343749 ECCENTRICITY = .00262654 INCLINATION = 98.043 RA_OF_ASC_NODE = 352.9861 ARG_OF_PERICENTER = 241.7995 MEAN_ANOMALY = 118.0583 EPHEMERIS_TYPE = 0 CLASSIFICATION_TYPE = U NORAD_CAT_ID = 40014 ELEMENT_SET_NO = 999 REV_AT_EPOCH = 66903 BSTAR = .19578E-3 MEAN_MOTION_DOT = .37520E-4 MEAN_MOTION_DDOT = 0 CCSDS_OMM_VERS = 2.0 CREATION_DATE = ORIGINATOR = OBJECT_NAME = SAUDISAT 4 OBJECT_ID = 2014-033G CENTER_NAME = EARTH REF_FRAME = TEME TIME_SYSTEM = UTC MEAN_ELEMENT_THEORY = SGP/SGP4 EPOCH = 2026-09-11T22:51:47.644992 MEAN_MOTION = 14.79636265 ECCENTRICITY = .00454392 INCLINATION = 97.7714 RA_OF_ASC_NODE = 38.1568 ARG_OF_PERICENTER = 149.4833 MEAN_ANOMALY = 210.9037 EPHEMERIS_TYPE = 0 CLASSIFICATION_TYPE = U NORAD_CAT_ID = 40016 ELEMENT_SET_NO = 999 REV_AT_EPOCH = 65890 BSTAR = .74862E-4 MEAN_MOTION_DOT = .51900E-5 MEAN_MOTION_DDOT = 0 CCSDS_OMM_VERS = 2.0 CREATION_DATE = ORIGINATOR = OBJECT_NAME = APRIZESAT 9 OBJECT_ID = 2014-033J CENTER_NAME = EARTH REF_FRAME = TEME TIME_SYSTEM = UTC MEAN_ELEMENT_THEORY = SGP/SGP4 EPOCH = 2026-09-11T22:44:06.777024 MEAN_MOTION = 14.74302714 ECCENTRICITY = .00646252 INCLINATION = 97.9183 RA_OF_ASC_NODE = 26.0869 ARG_OF_PERICENTER = 281.6394 MEAN_ANOMALY = 77.7566 EPHEMERIS_TYPE = 0 CLASSIFICATION_TYPE = U NORAD_CAT_ID = 40018 ELEMENT_SET_NO = 999 REV_AT_EPOCH = 65634 BSTAR = .58666E-4 MEAN_MOTION_DOT = .34700E-5 MEAN_MOTION_DDOT = 0 CCSDS_OMM_VERS = 2.0 CREATION_DATE = ORIGINATOR = OBJECT_NAME = APRIZESAT 10 OBJECT_ID = 2014-033K CENTER_NAME = EARTH REF_FRAME = TEME TIME_SYSTEM = UTC MEAN_ELEMENT_THEORY = SGP/SGP4 EPOCH = 2026-09-11T22:15:09.172800 MEAN_MOTION = 14.70963886 ECCENTRICITY = .007858 INCLINATION = 97.9759 RA_OF_ASC_NODE = 20.0037 ARG_OF_PERICENTER = 357.8676 MEAN_ANOMALY = 2.2184 EPHEMERIS_TYPE = 0 CLASSIFICATION_TYPE = U NORAD_CAT_ID = 40019 ELEMENT_SET_NO = 999 REV_AT_EPOCH = 65500 BSTAR = .46049E-4 MEAN_MOTION_DOT = .24200E-5 MEAN_MOTION_DDOT = 0 CCSDS_OMM_VERS = 2.0 CREATION_DATE = ORIGINATOR = OBJECT_NAME = TECHDEMOSAT-1 (TDS-1) OBJECT_ID = 2014-037H CENTER_NAME = EARTH REF_FRAME = TEME TIME_SYSTEM = UTC MEAN_ELEMENT_THEORY = SGP/SGP4 EPOCH = 2026-09-12T00:14:45.514464 MEAN_MOTION = 15.14382638 ECCENTRICITY = .0005577 INCLINATION = 98.3872 RA_OF_ASC_NODE = 255.9365 ARG_OF_PERICENTER = 351.0486 MEAN_ANOMALY = 9.0643 EPHEMERIS_TYPE = 0 CLASSIFICATION_TYPE = U NORAD_CAT_ID = 40076 ELEMENT_SET_NO = 999 REV_AT_EPOCH = 66136 BSTAR = .33607E-3 MEAN_MOTION_DOT = .60910E-4 MEAN_MOTION_DDOT = 0 CCSDS_OMM_VERS = 2.0 CREATION_DATE = ORIGINATOR = OBJECT_NAME = TECHNOSAT OBJECT_ID = 2017-042E CENTER_NAME = EARTH REF_FRAME = TEME TIME_SYSTEM = UTC MEAN_ELEMENT_THEORY = SGP/SGP4 EPOCH = 2026-09-12T00:06:34.519680 MEAN_MOTION = 15.05383808 ECCENTRICITY = .00181338 INCLINATION = 97.439 RA_OF_ASC_NODE = 49.4446 ARG_OF_PERICENTER = 153.0581 MEAN_ANOMALY = 207.1592 EPHEMERIS_TYPE = 0 CLASSIFICATION_TYPE = U NORAD_CAT_ID = 42829 ELEMENT_SET_NO = 999 REV_AT_EPOCH = 49976 BSTAR = .11873E-3 MEAN_MOTION_DOT = .16480E-4 MEAN_MOTION_DDOT = 0 CCSDS_OMM_VERS = 2.0 CREATION_DATE = ORIGINATOR = OBJECT_NAME = FLYING LAPTOP OBJECT_ID = 2017-042G CENTER_NAME = EARTH REF_FRAME = TEME TIME_SYSTEM = UTC MEAN_ELEMENT_THEORY = SGP/SGP4 EPOCH = 2026-09-12T07:02:12.418656 MEAN_MOTION = 15.01579794 ECCENTRICITY = .00162214 INCLINATION = 97.4996 RA_OF_ASC_NODE = 47.7012 ARG_OF_PERICENTER = 183.7209 MEAN_ANOMALY = 176.3898 EPHEMERIS_TYPE = 0 CLASSIFICATION_TYPE = U NORAD_CAT_ID = 42831 ELEMENT_SET_NO = 999 REV_AT_EPOCH = 49952 BSTAR = .12760E-3 MEAN_MOTION_DOT = .15990E-4 MEAN_MOTION_DDOT = 0 CCSDS_OMM_VERS = 2.0 CREATION_DATE = ORIGINATOR = OBJECT_NAME = HAWK-A OBJECT_ID = 2018-099H CENTER_NAME = EARTH REF_FRAME = TEME TIME_SYSTEM = UTC MEAN_ELEMENT_THEORY = SGP/SGP4 EPOCH = 2026-09-12T02:01:02.444448 MEAN_MOTION = 15.25626816 ECCENTRICITY = .0033308 INCLINATION = 97.3826 RA_OF_ASC_NODE = 306.2033 ARG_OF_PERICENTER = 341.9049 MEAN_ANOMALY = 18.1001 EPHEMERIS_TYPE = 0 CLASSIFICATION_TYPE = U NORAD_CAT_ID = 43765 ELEMENT_SET_NO = 999 REV_AT_EPOCH = 42634 BSTAR = .19352E-3 MEAN_MOTION_DOT = .49230E-4 MEAN_MOTION_DDOT = 0 CCSDS_OMM_VERS = 2.0 CREATION_DATE = ORIGINATOR = OBJECT_NAME = HAWK-B OBJECT_ID = 2018-099AN CENTER_NAME = EARTH REF_FRAME = TEME TIME_SYSTEM = UTC MEAN_ELEMENT_THEORY = SGP/SGP4 EPOCH = 2026-09-12T01:56:15.264672 MEAN_MOTION = 15.23712514 ECCENTRICITY = .00311976 INCLINATION = 97.3876 RA_OF_ASC_NODE = 305.4277 ARG_OF_PERICENTER = 1.3388 MEAN_ANOMALY = 358.7927 EPHEMERIS_TYPE = 0 CLASSIFICATION_TYPE = U NORAD_CAT_ID = 43794 ELEMENT_SET_NO = 999 REV_AT_EPOCH = 42626 BSTAR = .17965E-3 MEAN_MOTION_DOT = .42990E-4 MEAN_MOTION_DDOT = 0 CCSDS_OMM_VERS = 2.0 CREATION_DATE = ORIGINATOR = OBJECT_NAME = HAWK-C OBJECT_ID = 2018-099AT CENTER_NAME = EARTH REF_FRAME = TEME TIME_SYSTEM = UTC MEAN_ELEMENT_THEORY = SGP/SGP4 EPOCH = 2026-09-12T02:52:19.833600 MEAN_MOTION = 15.29308639 ECCENTRICITY = .00385033 INCLINATION = 97.3803 RA_OF_ASC_NODE = 307.5919 ARG_OF_PERICENTER = 339.6826 MEAN_ANOMALY = 20.288 EPHEMERIS_TYPE = 0 CLASSIFICATION_TYPE = U NORAD_CAT_ID = 43799 ELEMENT_SET_NO = 999 REV_AT_EPOCH = 42719 BSTAR = .20317E-3 MEAN_MOTION_DOT = .58260E-4 MEAN_MOTION_DDOT = 0 CCSDS_OMM_VERS = 2.0 CREATION_DATE = ORIGINATOR = OBJECT_NAME = SALSAT OBJECT_ID = 2020-068K CENTER_NAME = EARTH REF_FRAME = TEME TIME_SYSTEM = UTC MEAN_ELEMENT_THEORY = SGP/SGP4 EPOCH = 2026-09-11T23:28:21.147456 MEAN_MOTION = 15.30885844 ECCENTRICITY = .00094697 INCLINATION = 97.888 RA_OF_ASC_NODE = 263.4175 ARG_OF_PERICENTER = 9.1845 MEAN_ANOMALY = 350.9566 EPHEMERIS_TYPE = 0 CLASSIFICATION_TYPE = U NORAD_CAT_ID = 46495 ELEMENT_SET_NO = 999 REV_AT_EPOCH = 32863 BSTAR = .20261E-3 MEAN_MOTION_DOT = .59680E-4 MEAN_MOTION_DDOT = 0 CCSDS_OMM_VERS = 2.0 CREATION_DATE = ORIGINATOR = OBJECT_NAME = HAWK-2C OBJECT_ID = 2021-006CT CENTER_NAME = EARTH REF_FRAME = TEME TIME_SYSTEM = UTC MEAN_ELEMENT_THEORY = SGP/SGP4 EPOCH = 2026-09-12T02:32:36.734208 MEAN_MOTION = 15.35601704 ECCENTRICITY = .0005078 INCLINATION = 97.2201 RA_OF_ASC_NODE = 297.7027 ARG_OF_PERICENTER = 240.5885 MEAN_ANOMALY = 119.4853 EPHEMERIS_TYPE = 0 CLASSIFICATION_TYPE = U NORAD_CAT_ID = 47502 ELEMENT_SET_NO = 999 REV_AT_EPOCH = 31283 BSTAR = .13097E-3 MEAN_MOTION_DOT = .44550E-4 MEAN_MOTION_DDOT = 0 CCSDS_OMM_VERS = 2.0 CREATION_DATE = ORIGINATOR = OBJECT_NAME = HAWK-2A OBJECT_ID = 2021-006CW CENTER_NAME = EARTH REF_FRAME = TEME TIME_SYSTEM = UTC MEAN_ELEMENT_THEORY = SGP/SGP4 EPOCH = 2026-09-12T02:33:14.667264 MEAN_MOTION = 15.35643745 ECCENTRICITY = .00045774 INCLINATION = 97.2243 RA_OF_ASC_NODE = 298.4339 ARG_OF_PERICENTER = 245.97 MEAN_ANOMALY = 114.1066 EPHEMERIS_TYPE = 0 CLASSIFICATION_TYPE = U NORAD_CAT_ID = 47505 ELEMENT_SET_NO = 999 REV_AT_EPOCH = 31283 BSTAR = .13008E-3 MEAN_MOTION_DOT = .44300E-4 MEAN_MOTION_DDOT = 0 CCSDS_OMM_VERS = 2.0 CREATION_DATE = ORIGINATOR = OBJECT_NAME = HAWK-2B OBJECT_ID = 2021-006CZ CENTER_NAME = EARTH REF_FRAME = TEME TIME_SYSTEM = UTC MEAN_ELEMENT_THEORY = SGP/SGP4 EPOCH = 2026-09-12T02:16:32.691648 MEAN_MOTION = 15.35802806 ECCENTRICITY = .00050686 INCLINATION = 97.2115 RA_OF_ASC_NODE = 296.62 ARG_OF_PERICENTER = 242.9404 MEAN_ANOMALY = 117.1324 EPHEMERIS_TYPE = 0 CLASSIFICATION_TYPE = U NORAD_CAT_ID = 47508 ELEMENT_SET_NO = 999 REV_AT_EPOCH = 31283 BSTAR = .15259E-3 MEAN_MOTION_DOT = .52370E-4 MEAN_MOTION_DDOT = 0 CCSDS_OMM_VERS = 2.0 CREATION_DATE = ORIGINATOR = OBJECT_NAME = HAWK-3B OBJECT_ID = 2021-059BE CENTER_NAME = EARTH REF_FRAME = TEME TIME_SYSTEM = UTC MEAN_ELEMENT_THEORY = SGP/SGP4 EPOCH = 2026-09-12T01:58:54.365952 MEAN_MOTION = 15.77185126 ECCENTRICITY = .0003853 INCLINATION = 97.6558 RA_OF_ASC_NODE = 100.4846 ARG_OF_PERICENTER = 16.6556 MEAN_ANOMALY = 343.4835 EPHEMERIS_TYPE = 0 CLASSIFICATION_TYPE = U NORAD_CAT_ID = 48931 ELEMENT_SET_NO = 999 REV_AT_EPOCH = 29151 BSTAR = .28576E-3 MEAN_MOTION_DOT = .46637E-3 MEAN_MOTION_DDOT = 0 CCSDS_OMM_VERS = 2.0 CREATION_DATE = ORIGINATOR = OBJECT_NAME = HAWK-3C OBJECT_ID = 2021-059BX CENTER_NAME = EARTH REF_FRAME = TEME TIME_SYSTEM = UTC MEAN_ELEMENT_THEORY = SGP/SGP4 EPOCH = 2026-09-12T03:29:48.264000 MEAN_MOTION = 15.77195428 ECCENTRICITY = .00038285 INCLINATION = 97.6663 RA_OF_ASC_NODE = 106.3796 ARG_OF_PERICENTER = 18.8004 MEAN_ANOMALY = 341.3402 EPHEMERIS_TYPE = 0 CLASSIFICATION_TYPE = U NORAD_CAT_ID = 48948 ELEMENT_SET_NO = 999 REV_AT_EPOCH = 29152 BSTAR = .30159E-3 MEAN_MOTION_DOT = .49265E-3 MEAN_MOTION_DDOT = 0 CCSDS_OMM_VERS = 2.0 CREATION_DATE = ORIGINATOR = OBJECT_NAME = HAWK-3A OBJECT_ID = 2021-059CG CENTER_NAME = EARTH REF_FRAME = TEME TIME_SYSTEM = UTC MEAN_ELEMENT_THEORY = SGP/SGP4 EPOCH = 2026-09-12T03:29:38.775552 MEAN_MOTION = 15.77191558 ECCENTRICITY = .00039926 INCLINATION = 97.661 RA_OF_ASC_NODE = 103.518 ARG_OF_PERICENTER = 18.4977 MEAN_ANOMALY = 341.6432 EPHEMERIS_TYPE = 0 CLASSIFICATION_TYPE = U NORAD_CAT_ID = 48957 ELEMENT_SET_NO = 999 REV_AT_EPOCH = 29152 BSTAR = .27766E-3 MEAN_MOTION_DOT = .45318E-3 MEAN_MOTION_DDOT = 0 CCSDS_OMM_VERS = 2.0 CREATION_DATE = ORIGINATOR = OBJECT_NAME = HAWK-5C OBJECT_ID = 2022-057Y CENTER_NAME = EARTH REF_FRAME = TEME TIME_SYSTEM = UTC MEAN_ELEMENT_THEORY = SGP/SGP4 EPOCH = 2026-09-11T23:26:01.312512 MEAN_MOTION = 15.54185352 ECCENTRICITY = .00048049 INCLINATION = 97.6672 RA_OF_ASC_NODE = 60.4797 ARG_OF_PERICENTER = 109.0523 MEAN_ANOMALY = 251.125 EPHEMERIS_TYPE = 0 CLASSIFICATION_TYPE = U NORAD_CAT_ID = 52754 ELEMENT_SET_NO = 999 REV_AT_EPOCH = 23981 BSTAR = .27392E-3 MEAN_MOTION_DOT = .17743E-3 MEAN_MOTION_DDOT = 0 CCSDS_OMM_VERS = 2.0 CREATION_DATE = ORIGINATOR = OBJECT_NAME = HAWK-5B OBJECT_ID = 2022-057AA CENTER_NAME = EARTH REF_FRAME = TEME TIME_SYSTEM = UTC MEAN_ELEMENT_THEORY = SGP/SGP4 EPOCH = 2026-09-12T07:09:21.622752 MEAN_MOTION = 15.54185388 ECCENTRICITY = .00055222 INCLINATION = 97.669 RA_OF_ASC_NODE = 59.1887 ARG_OF_PERICENTER = 103.426 MEAN_ANOMALY = 256.7609 EPHEMERIS_TYPE = 0 CLASSIFICATION_TYPE = U NORAD_CAT_ID = 52756 ELEMENT_SET_NO = 999 REV_AT_EPOCH = 23986 BSTAR = .23730E-3 MEAN_MOTION_DOT = .15354E-3 MEAN_MOTION_DDOT = 0 CCSDS_OMM_VERS = 2.0 CREATION_DATE = ORIGINATOR = OBJECT_NAME = HAWK-5A OBJECT_ID = 2022-057AB CENTER_NAME = EARTH REF_FRAME = TEME TIME_SYSTEM = UTC MEAN_ELEMENT_THEORY = SGP/SGP4 EPOCH = 2026-09-12T05:36:22.392000 MEAN_MOTION = 15.54180467 ECCENTRICITY = .00054219 INCLINATION = 97.6684 RA_OF_ASC_NODE = 59.9463 ARG_OF_PERICENTER = 106.6517 MEAN_ANOMALY = 253.5331 EPHEMERIS_TYPE = 0 CLASSIFICATION_TYPE = U NORAD_CAT_ID = 52757 ELEMENT_SET_NO = 999 REV_AT_EPOCH = 23985 BSTAR = .23253E-3 MEAN_MOTION_DOT = .15040E-3 MEAN_MOTION_DDOT = 0 CCSDS_OMM_VERS = 2.0 CREATION_DATE = ORIGINATOR = OBJECT_NAME = HAWK-6B OBJECT_ID = 2023-011A CENTER_NAME = EARTH REF_FRAME = TEME TIME_SYSTEM = UTC MEAN_ELEMENT_THEORY = SGP/SGP4 EPOCH = 2026-09-12T05:58:32.793888 MEAN_MOTION = 15.23580715 ECCENTRICITY = .00035852 INCLINATION = 40.4973 RA_OF_ASC_NODE = 204.0044 ARG_OF_PERICENTER = 282.2968 MEAN_ANOMALY = 77.744 EPHEMERIS_TYPE = 0 CLASSIFICATION_TYPE = U NORAD_CAT_ID = 55324 ELEMENT_SET_NO = 999 REV_AT_EPOCH = 20112 BSTAR = .14333E-3 MEAN_MOTION_DOT = .33060E-4 MEAN_MOTION_DDOT = 0 CCSDS_OMM_VERS = 2.0 CREATION_DATE = ORIGINATOR = OBJECT_NAME = HAWK-6C OBJECT_ID = 2023-011C CENTER_NAME = EARTH REF_FRAME = TEME TIME_SYSTEM = UTC MEAN_ELEMENT_THEORY = SGP/SGP4 EPOCH = 2026-09-12T05:57:38.273760 MEAN_MOTION = 15.23585105 ECCENTRICITY = .00043396 INCLINATION = 40.4962 RA_OF_ASC_NODE = 200.8365 ARG_OF_PERICENTER = 273.3751 MEAN_ANOMALY = 86.6562 EPHEMERIS_TYPE = 0 CLASSIFICATION_TYPE = U NORAD_CAT_ID = 55326 ELEMENT_SET_NO = 999 REV_AT_EPOCH = 20113 BSTAR = .15483E-3 MEAN_MOTION_DOT = .35880E-4 MEAN_MOTION_DDOT = 0 CCSDS_OMM_VERS = 2.0 CREATION_DATE = ORIGINATOR = OBJECT_NAME = HAWK-6A OBJECT_ID = 2023-011D CENTER_NAME = EARTH REF_FRAME = TEME TIME_SYSTEM = UTC MEAN_ELEMENT_THEORY = SGP/SGP4 EPOCH = 2026-09-12T04:23:16.766016 MEAN_MOTION = 15.23582905 ECCENTRICITY = .00039486 INCLINATION = 40.4973 RA_OF_ASC_NODE = 202.8517 ARG_OF_PERICENTER = 269.8255 MEAN_ANOMALY = 90.2102 EPHEMERIS_TYPE = 0 CLASSIFICATION_TYPE = U NORAD_CAT_ID = 55327 ELEMENT_SET_NO = 999 REV_AT_EPOCH = 20112 BSTAR = .15147E-3 MEAN_MOTION_DOT = .35050E-4 MEAN_MOTION_DDOT = 0 CCSDS_OMM_VERS = 2.0 CREATION_DATE = ORIGINATOR = OBJECT_NAME = HAWK-7A OBJECT_ID = 2023-054P CENTER_NAME = EARTH REF_FRAME = TEME TIME_SYSTEM = UTC MEAN_ELEMENT_THEORY = SGP/SGP4 EPOCH = 2026-09-12T03:45:07.180704 MEAN_MOTION = 15.2814713 ECCENTRICITY = .00047484 INCLINATION = 97.2554 RA_OF_ASC_NODE = 140.2654 ARG_OF_PERICENTER = 87.692 MEAN_ANOMALY = 272.4863 EPHEMERIS_TYPE = 0 CLASSIFICATION_TYPE = U NORAD_CAT_ID = 56191 ELEMENT_SET_NO = 999 REV_AT_EPOCH = 19030 BSTAR = .15291E-3 MEAN_MOTION_DOT = .41240E-4 MEAN_MOTION_DDOT = 0 CCSDS_OMM_VERS = 2.0 CREATION_DATE = ORIGINATOR = OBJECT_NAME = HAWK-7B OBJECT_ID = 2023-054R CENTER_NAME = EARTH REF_FRAME = TEME TIME_SYSTEM = UTC MEAN_ELEMENT_THEORY = SGP/SGP4 EPOCH = 2026-09-12T03:45:01.672704 MEAN_MOTION = 15.28149037 ECCENTRICITY = .00038112 INCLINATION = 97.2579 RA_OF_ASC_NODE = 138.5591 ARG_OF_PERICENTER = 95.0118 MEAN_ANOMALY = 265.1557 EPHEMERIS_TYPE = 0 CLASSIFICATION_TYPE = U NORAD_CAT_ID = 56193 ELEMENT_SET_NO = 999 REV_AT_EPOCH = 19030 BSTAR = .15264E-3 MEAN_MOTION_DOT = .41160E-4 MEAN_MOTION_DDOT = 0 CCSDS_OMM_VERS = 2.0 CREATION_DATE = ORIGINATOR = OBJECT_NAME = HAWK-7C OBJECT_ID = 2023-054Y CENTER_NAME = EARTH REF_FRAME = TEME TIME_SYSTEM = UTC MEAN_ELEMENT_THEORY = SGP/SGP4 EPOCH = 2026-09-12T03:44:50.356032 MEAN_MOTION = 15.2814875 ECCENTRICITY = .00041233 INCLINATION = 97.2557 RA_OF_ASC_NODE = 139.3009 ARG_OF_PERICENTER = 86.8068 MEAN_ANOMALY = 273.3644 EPHEMERIS_TYPE = 0 CLASSIFICATION_TYPE = U NORAD_CAT_ID = 56200 ELEMENT_SET_NO = 999 REV_AT_EPOCH = 19030 BSTAR = .15186E-3 MEAN_MOTION_DOT = .40950E-4 MEAN_MOTION_DDOT = 0